Weather History for West Palm Beach, FL

Change the Weather History Date:

Monday, April 7, 2014

  Actual Average Record
Temperature  
Mean Temperature 81 °F 73 °F  
Max Temperature 87 °F 81 °F 90 °F (1956)
Min Temperature 75 °F 65 °F 39 °F (1891)
Degree Days  
Heating Degree Days 0 0  
Month to date heating degree days 0 0  
Since 1 July heating degree days 122 229  
Cooling Degree Days 16 8  
Month to date cooling degree days 67 53  
Year to date cooling degree days 615 481  
Growing Degree Days 31 (Base 50)    
Moisture  
Dew Point 69 °F    
Average Humidity 68    
Maximum Humidity 85    
Minimum Humidity 50    
Precipitation  
Precipitation T in 0.13 in 2.63 in (1954)
Month to date precipitation T 0.97  
Year to date precipitation 13.88 11.51  
Snow  
Snow 0.00 in - - ()
Month to date snowfall 0.0  
Since 1 July snowfall 0.0  
Snow Depth 0.00 in    
Sea Level Pressure  
Sea Level Pressure 29.93 in    
Wind  
Wind Speed 14 mph (SSE)    
Max Wind Speed 24 mph    
Max Gust Speed 31 mph    
Visibility 10 miles    
Events      
T = Trace of Precipitation, MM = Missing Value Source: NWS Daily Summary

Daily Weather History Graph

Daily Weather History Graph

Search for Another Location

Airport:

Trip Planner

Search our weather history database for the weather conditions in past years. The results will help you decide how hot, cold, wet, or windy it might be!

Date:

Astronomy

Apr. 07, 2014 Rise Set
Actual Time 7:04 AM EDT 7:40 PM EDT
Civil Twilight 6:41 AM EDT 8:03 PM EDT
Nautical Twilight 6:13 AM EDT 8:31 PM EDT
Astronomical Twilight 5:46 AM EDT 8:59 PM EDT
Moon 1:13 PM EDT (4/7) 2:01 AM EDT (4/7)
Length of Visible Light 13h 22m
Length of Day
12h 35m
First Quarter, 53% of the Moon is Illuminated
Apr 7
First Quarter
Apr 15
Full
Apr 22
Last Quarter
Apr 29
New
May 6
First Quarter

Hourly Weather History & Observations

Time (EDT) Temp. Heat Index Dew Point Humidity Pressure Visibility Wind Dir Wind Speed Gust Speed Precip Events Conditions
12:53 AM 75.0 °F - 66.0 °F 73% 29.98 in 10.0 mi SE 15.0 mph - N/A   Partly Cloudy
1:53 AM 75.9 °F - 66.0 °F 71% 29.97 in 10.0 mi SE 15.0 mph - N/A   Scattered Clouds
2:53 AM 75.9 °F - 66.9 °F 74% 29.95 in 10.0 mi SE 13.8 mph - N/A   Scattered Clouds
3:24 AM 75.9 °F - 66.9 °F 74% 29.94 in 10.0 mi SE 13.8 mph - N/A   Mostly Cloudy
3:32 AM 75.9 °F - 66.9 °F 74% 29.93 in 10.0 mi SE 13.8 mph - N/A   Scattered Clouds
3:53 AM 75.9 °F - 66.9 °F 74% 29.94 in 10.0 mi SE 12.7 mph - N/A   Scattered Clouds
4:53 AM 75.9 °F - 66.9 °F 74% 29.93 in 10.0 mi SSE 11.5 mph 20.7 mph N/A   Scattered Clouds
5:53 AM 75.9 °F - 68.0 °F 76% 29.92 in 10.0 mi SSE 11.5 mph - N/A   Scattered Clouds
6:53 AM 75.9 °F - 68.0 °F 76% 29.94 in 10.0 mi SSE 11.5 mph - N/A   Mostly Cloudy
7:53 AM 77.0 °F - 69.1 °F 76% 29.96 in 10.0 mi South 11.5 mph - N/A   Mostly Cloudy
8:53 AM 79.0 °F - 69.1 °F 72% 29.97 in 10.0 mi SSE 17.3 mph 23.0 mph N/A   Mostly Cloudy
9:53 AM 81.0 °F 83.8 °F 68.0 °F 65% 29.96 in 10.0 mi South 16.1 mph 23.0 mph N/A   Mostly Cloudy
10:53 AM 82.9 °F 85.8 °F 68.0 °F 60% 29.96 in 10.0 mi SSE 19.6 mph 27.6 mph N/A   Mostly Cloudy
11:53 AM 84.9 °F 88.8 °F 69.1 °F 59% 29.95 in 10.0 mi South 19.6 mph 26.5 mph N/A   Mostly Cloudy
12:53 PM 84.9 °F 88.2 °F 68.0 °F 57% 29.94 in 10.0 mi South 17.3 mph 25.3 mph N/A   Mostly Cloudy
1:53 PM 87.1 °F 89.9 °F 66.9 °F 51% 29.92 in 10.0 mi SSE 17.3 mph 21.9 mph N/A   Mostly Cloudy
2:53 PM 86.0 °F 90.1 °F 69.1 °F 57% 29.90 in 10.0 mi SSE 19.6 mph 25.3 mph N/A   Mostly Cloudy
3:53 PM 86.0 °F 91.5 °F 71.1 °F 61% 29.88 in 10.0 mi SE 20.7 mph 25.3 mph N/A   Mostly Cloudy
4:53 PM 84.0 °F 89.0 °F 71.1 °F 65% 29.87 in 10.0 mi SE 17.3 mph - N/A   Mostly Cloudy
5:53 PM 82.9 °F 87.5 °F 71.1 °F 67% 29.87 in 10.0 mi SSE 17.3 mph - N/A   Mostly Cloudy
6:53 PM 81.0 °F 85.2 °F 72.0 °F 74% 29.88 in 10.0 mi SSE 12.7 mph - N/A   Mostly Cloudy
7:53 PM 79.0 °F - 72.0 °F 79% 29.91 in 10.0 mi South 12.7 mph - N/A   Mostly Cloudy
8:53 PM 78.1 °F - 72.0 °F 81% 29.91 in 10.0 mi South 9.2 mph - N/A   Scattered Clouds
9:53 PM 78.1 °F - 72.0 °F 81% 29.92 in 10.0 mi SSE 9.2 mph - N/A   Scattered Clouds
10:53 PM 78.1 °F - 73.0 °F 84% 29.91 in 10.0 mi SSE 9.2 mph - N/A   Scattered Clouds
11:32 PM 78.1 °F - 73.9 °F 87% 29.92 in 10.0 mi SSE 11.5 mph - N/A   Mostly Cloudy
11:44 PM 78.1 °F - 73.9 °F 87% 29.92 in 10.0 mi SSE 10.4 mph - N/A   Overcast
11:53 PM 78.1 °F - 73.9 °F 87% 29.92 in 10.0 mi SSE 9.2 mph - N/A   Overcast